SCP
0 0 0 0 0 0 0 0 0 0 0 0 0 0 0 0 0 0 0 0 0 0 0 0 0 0 0 -0 0 -0 -0 -0 -0 -0 -0 0 0 0 0 0 0 0 0 0
0 0 0 0 0 0 0 0 0 0 0 0 0 0 0 0 0 0 0 0 0 0 0 0 0 0 0 0 -0 -0 -0 -0 -0 -0 -0 0 0 0 0 0 0 0 0 0
0 0 0 0 0 0 0 0 0 0 0 0 0 0 0 0 0 0 0 0 0 0 0 0 0 -0 -0 -0 -0 -0 -0 -0 -0 0 0 0 0 0 0 0 0 0 0 0
0 0 0 0 0 0 0 0 0 0 0 0 0 0 0 0 0 0 0 0 0 0 0 0 -0 -0 -0 -0 -0 -0 -0 -0 0 0 0 0 0 0 0 0 0 0 0 0
0 0 0 0 0 0 0 0 0 0 0 0 0 0 0 0 0 0 0 0 0 0 -0 -0 -0 -0 -0 -0 -0 -0 -0 -0 0 0 0 0 0 0 0 0 0 0 0 0
0 0 0 0 0 0 0 0 0 0 0 -0 0 0 0 0 0 0 0 0 0 0 -0 -0 -0 -0 -0 -0 -0 -0 -0 -0 0 0 0 0 -0 -0 -0 0 0 -0 0 0
0 0 0 0 0 0 0 -0 0 0 0 0 0 0 0 0 0 0 0 0 0 0 0 0 -0 -0 -0 -0 -0 -0 -0 -0 -0 -0 0 0 0 0 0 0 -0 -0 -0 -0
0 0 0 0 0 0 -0 -0 -0 -0 0 0 0 0 0 0 0 0 0 0 0 0 0 0 0 0 -0 -0 -0 -0 -0 -0 -0 0 -0 0 0 0 -0 -0 0 0 0 0
0 0 0 -0 -0 -0 -0 -0 -0 -0 -0 -0 -0 -0 -0 -0 -0 -0 -0 -0 -0 -0 0 0 0 -0 -0 -0 -0 -0 -0 -0 -0 -0 -0 0 0 0 0 0 0 0 0 0
0 0 0 0 0 -0 -0 -0 0 0 -0 0 -0 -0 -0 -0 -0 -0 -0 -0 -0 -0 0 -0 -0 -0 -0 -0 -0 -0 0 0 0 0 0 0 0 0 0 0 0 0 0 0
0 0 0 -0 0 0 0 -0 0 0 0 0 0 0 0 0 0 0 0 0 0 0 0 -0 -0 -0 -0 -0 -0 0 0 0 0 0 0 0 0 0 0 0 0 0 0 -0
0 -0 0 -0 -0 -0 -0 0 0 0 0 0 0 0 0 0 0 0 0 -0 0 0 0 0 -0 0 -0 -0 -0 0 0 0 0 0 0 0 -0 -0 0 0 0 0 0 -0
0 -0 0 0 -0 -0 -0 -0 -0 0 0 0 0 0 0 0 0 0 0 0 0 0 0 0 0 0 0 0 0 0 0 0 0 0 0 0 0 0 -0 -0 0 0 0 0
0 -0 -0 -0 -0 -0 -0 -0 -0 0 0 0 0 0 0 0 0 0 -0 -0 0 0 0 0 0 0 0 0 0 0 0 0 0 0 0 0 0 0 0 0 0 0 -0 0
-0 0 0 -0 -0 -0 0 -0 -0 -0 -0 -0 0 -0 -0 -0 -0 -0 -0 -0 -0 0 0 0 0 0 0 0 0 0 0 0 0 0 0 0 0 0 0 0 0 0 0 0
-0 0 -0 -0 -0 -0 -0 0 -0 -0 0 0 0 -0 -0 0 0 0 0 0 0 0 0 0 0 0 0 0 0 0 0 0 0 0 0 0 0 0 0 0 0 0 0 0
-0 0 0 -0 -0 -0 -0 -0 0 0 0 0 0 0 0 0 0 0 0 0 0 0 0 0 0 0 0 0 0 0 0 0 0 0 0 0 0 0 0 0 0 0 0 0
0 0 0 -0 -0 -0 -0 0 0 0 0 0 0 0 0 0 0 0 0 0 0 0 0 0 0 0 0 0 0 0 0 0 0 0 0 0 0 0 0 0 0 0 0 0
-0 0 0 0 -0 0 0 0 0 0 0 0 0 0 0 0 0 0 0 0 0 0 0 0 0 0 0 0 0 0 0 0 0 0 0 0 0 0 0 0 0 0 0 0
0 0 0 0 0 0 0 0 0 0 0 0 0 0 0 0 0 0 0 0 0 0 0 0 0 0 0 0 0 0 0 0 0 0 0 0 0 0 0 0 0 0 0 0
-0 0 0 0 0 0 0 0 0 0 0 0 0 0 0 0 0 0 0 0 0 0 0 0 0 0 0 0 0 0 0 0 0 0 0 0 0 0 0 0 0 0 0 0
0 0 0 0 0 0 0 0 0 0 0 0 0 0 0 0 0 0 0 0 0 0 0 0 0 0 0 0 0 0 0 0 0 0 0 0 0 0 0 0 0 0 0 0
0 0 0 0 0 0 0 0 0 0 0 0 0 0 0 0 0 0 0 0 0 0 0 0 0 0 0 0 0 0 0 0 0 0 0 0 0 0 0 0 0 0 0 0
0 0 0 0 0 0 0 0 0 0 0 0 0 0 0 0 0 0 0 0 0 0 0 0 0 0 0 0 0 0 0 0 0 0 0 0 0 0 0 0 0 0 0 0
0 0 0 0 0 0 0 0 0 0 0 0 0 0 0 0 0 0 0 0 0 0 0 0 0 0 0 0 0 0 0 0 0 0 0 0 0 0 0 0 0 0 0 0
0 0 0 0 0 0 0 0 0 0 0 0 0 0 0 0 0 0 0 0 0 0 0 0 0 0 0 0 0 0 0 0 0 0 0 0 0 0 0 0 0 0 0 0
0 0 0 0 0 0 0 0 0 0 0 0 0 0 0 0 0 0 0 0 0 0 0 0 0 0 0 0 0 0 0 0 0 0 0 0 0 0 0 0 0 0 0 0
Wind_Speed_500mb
1 7 21 28 29 34 32 17 8 17 20 33 31 33 47 48 61 57 64 71 71 76 82 84 93 103 105 104 98 97 99 96 95 89 84 82 80 79 77 72 72 69 69 68
5 6 11 32 32 27 21 17 6 14 14 24 31 40 56 61 55 55 60 63 70 81 79 88 99 103 103 100 98 96 98 96 91 87 84 82 77 77 76 77 72 68 68 66
10 6 8 14 24 27 15 18 6 17 12 22 22 38 44 48 50 54 54 64 76 75 82 90 94 97 100 98 95 97 97 93 89 86 85 82 79 75 74 71 66 67 62 57
4 8 20 7 5 10 21 16 15 7 9 8 9 31 46 48 47 51 59 67 68 76 84 87 91 94 91 91 92 91 90 86 82 78 79 75 71 71 69 63 62 60 57 53
4 7 6 6 2 3 5 15 13 8 8 2 15 9 38 43 46 49 56 63 72 76 80 82 85 85 87 89 87 85 84 81 76 72 71 67 68 67 65 61 60 57 50 45
2 6 4 4 6 8 4 13 7 11 14 13 9 15 6 33 41 48 53 60 66 70 73 75 78 77 79 82 79 81 75 71 66 64 65 67 66 64 59 54 54 50 47 45
3 3 6 4 7 14 3 9 17 7 11 24 11 9 17 27 37 47 54 58 62 67 74 74 71 71 78 74 76 70 65 63 63 62 62 59 58 55 53 50 48 46 46 45
3 2 2 12 12 7 16 29 27 21 21 29 27 27 29 34 40 45 51 55 59 64 68 68 63 62 69 71 66 60 57 58 57 55 54 52 49 49 46 45 45 45 42 45
8 1 1 12 13 22 35 47 35 31 30 29 30 30 31 34 38 43 48 53 57 61 63 63 61 58 63 64 55 53 53 55 53 51 49 47 45 45 45 43 40 39 41 41
3 6 8 16 30 38 38 37 39 34 34 32 35 34 36 37 39 43 46 50 52 53 56 58 55 54 56 53 48 46 49 49 46 44 44 42 41 39 35 35 38 43 45 44
6 4 6 24 37 44 43 39 39 36 34 35 36 37 36 39 40 42 43 44 44 45 49 52 49 48 47 42 38 38 42 44 43 41 38 35 31 30 31 37 40 39 38 36
9 46 22 44 64 57 53 51 48 47 46 39 35 37 39 40 40 40 41 40 38 38 40 43 42 42 42 38 32 31 35 36 36 34 32 31 30 31 33 33 38 41 39 33
10 46 25 44 67 62 57 54 50 47 44 47 43 39 40 41 42 42 41 39 35 34 35 35 34 34 34 33 28 25 28 32 31 31 31 30 31 31 31 33 39 44 44 42
22 64 27 72 78 68 59 54 50 47 44 42 42 44 41 42 44 43 41 39 37 35 34 33 31 29 29 29 24 20 22 25 25 27 30 32 35 37 37 38 43 47 47 45
41 57 41 63 66 71 65 63 62 59 56 54 50 47 48 46 44 42 42 41 39 37 35 33 30 26 25 23 20 15 16 18 21 24 27 31 34 36 37 37 41 47 48 46
56 60 40 69 76 79 76 73 70 69 65 62 58 55 47 41 40 41 43 43 40 37 36 34 32 26 21 18 16 12 9 9 14 20 25 28 32 35 38 39 43 50 51 50
72 60 59 74 83 88 88 80 74 71 70 68 61 56 54 52 51 50 48 44 42 39 36 34 32 29 25 20 16 11 5 3 9 15 21 27 32 37 40 42 43 49 53 51
81 80 84 80 88 88 85 80 76 74 71 65 64 63 63 62 56 52 51 51 51 48 45 41 38 35 30 25 21 15 10 8 8 13 19 26 31 36 41 43 44 49 52 50
75 68 77 72 72 77 78 79 78 72 70 69 72 73 65 59 56 55 55 56 56 53 48 45 42 39 35 32 27 22 17 14 13 16 20 25 31 36 40 43 44 50 54 52
76 77 58 69 64 68 74 73 73 73 73 72 72 73 72 68 65 63 63 62 53 46 46 46 43 40 38 35 33 28 23 20 19 20 22 26 31 37 42 46 47 52 55 54
64 75 72 60 65 62 63 70 72 76 75 76 77 74 70 67 69 70 70 67 58 54 54 51 48 46 43 40 38 34 29 26 24 23 23 27 32 36 42 45 46 51 55 54
58 69 75 66 58 58 58 63 70 73 75 76 75 75 75 73 74 76 72 65 57 58 59 56 53 50 46 43 41 36 32 29 27 25 25 27 32 37 42 44 46 52 56 54
61 52 66 71 62 55 55 59 64 71 73 76 77 77 76 75 76 79 77 70 66 66 61 57 53 52 49 48 44 37 35 31 28 27 26 29 33 37 42 43 46 52 55 54
52 43 48 63 64 59 59 57 58 61 67 70 71 73 74 75 75 75 74 66 62 62 62 58 57 55 53 51 46 43 38 33 32 30 27 30 33 37 41 42 45 51 54 52
38 37 34 53 67 68 59 53 51 54 57 63 69 70 72 72 71 67 67 67 63 63 63 60 58 56 54 51 49 48 44 43 37 32 27 28 33 37 40 41 45 50 52 49
22 27 30 34 46 57 59 59 58 54 55 59 61 65 69 72 71 68 66 64 66 64 62 64 63 60 54 52 51 52 48 41 38 32 27 27 33 36 37 39 44 49 50 46
11 17 24 30 35 44 54 58 58 55 52 52 52 54 59 66 69 68 67 68 65 66 63 62 62 57 52 51 55 51 45 42 37 31 26 27 33 35 35 38 44 48 47 43
Wind_Direction_500mb
197 287 50 44 28 28 48 26 33 340 5 358 356 347 354 9 11 16 27 39 47 62 73 84 89 99 102 103 105 104 103 101 98 99 98 98 97 94 95 93 92 91 89 86
140 272 253 45 31 33 43 20 19 360 39 355 358 11 11 7 9 18 27 38 59 76 77 86 93 98 101 102 100 100 98 98 99 98 97 96 96 95 95 94 92 90 87 84
40 26 195 23 18 30 59 32 317 40 339 342 12 29 9 1 15 26 34 49 71 78 83 92 95 99 99 101 102 99 99 99 98 97 96 95 93 92 90 89 90 87 84 81
348 324 42 334 102 161 71 51 36 58 7 358 89 53 30 35 35 46 60 74 79 83 88 93 97 99 100 100 98 97 96 96 94 93 93 93 92 89 89 88 85 82 81 79
40 37 139 212 350 343 360 19 14 352 4 318 206 201 47 46 56 63 72 80 87 91 95 97 96 98 98 96 96 95 94 94 95 95 95 94 92 89 88 87 86 81 77 71
108 77 61 123 166 186 194 45 26 17 8 358 176 96 29 50 71 82 87 93 96 97 98 99 99 100 99 98 97 94 94 94 95 95 93 91 89 89 88 85 82 77 69 62
104 107 260 148 151 157 176 179 162 133 75 62 59 62 100 87 90 92 95 97 101 103 100 99 101 102 99 99 95 95 96 95 93 90 89 90 91 88 82 79 77 71 60 52
127 159 222 147 133 213 138 137 151 144 125 116 114 108 101 99 100 102 104 107 106 105 104 103 101 100 98 95 97 99 100 99 98 97 94 91 88 86 80 74 67 60 49 41
221 341 178 200 239 153 147 153 162 154 145 135 125 120 116 112 113 112 112 110 109 107 106 105 105 102 101 102 104 103 100 97 94 91 89 87 82 76 70 64 60 52 43 37
224 186 200 164 153 158 157 159 159 159 154 149 140 135 129 126 123 121 119 118 116 115 113 110 106 102 99 101 101 99 95 93 88 83 78 72 68 65 61 58 50 40 34 29
247 185 187 214 189 172 169 170 168 166 163 157 152 145 141 138 135 132 129 126 127 124 119 115 111 104 99 98 98 95 91 85 79 73 70 70 69 66 58 49 41 35 29 26
207 183 181 196 183 182 182 179 177 173 169 169 165 157 153 150 147 145 142 140 138 131 126 122 119 113 108 101 93 85 87 86 83 77 71 66 61 55 48 40 32 31 28 26
166 182 182 178 181 184 185 183 181 180 178 170 169 170 165 161 158 157 154 152 150 144 139 133 129 123 117 110 102 96 89 85 80 74 67 61 55 50 46 36 25 21 20 14
194 167 156 170 181 185 185 183 183 182 185 185 179 175 176 174 170 169 166 163 163 160 155 150 148 144 135 126 119 102 88 84 77 66 55 46 39 33 28 22 18 15 10 8
193 183 190 180 181 182 183 185 187 189 189 190 191 190 184 183 182 176 176 176 175 172 170 167 166 163 153 142 130 114 92 74 64 54 44 36 30 24 19 15 11 8 4 2
192 195 184 184 184 184 187 190 194 193 195 195 195 194 193 189 191 190 190 191 191 187 182 181 179 181 176 167 155 139 110 75 50 40 31 25 20 15 11 9 6 4 1 356
180 188 186 187 189 191 196 198 198 198 197 199 199 196 195 195 198 201 201 197 195 197 195 195 194 195 197 194 188 178 169 37 19 17 14 9 8 6 4 2 360 359 356 352
207 207 200 196 193 196 199 202 202 203 204 201 198 201 204 206 208 206 204 204 204 206 204 203 205 205 208 211 212 215 227 265 316 344 352 355 356 355 356 355 353 354 352 350
211 215 209 207 207 206 205 205 206 206 205 206 204 207 212 214 212 210 211 212 213 213 212 213 213 213 215 219 224 230 239 260 288 314 330 338 342 346 348 350 349 349 350 348
214 214 213 216 215 216 214 211 211 210 210 210 211 213 215 214 213 213 216 221 223 223 217 219 221 221 224 225 228 234 242 256 275 292 311 325 333 339 344 347 346 346 347 345
211 213 213 215 215 218 219 219 216 215 214 214 217 219 221 219 217 217 219 223 221 217 219 222 225 225 227 228 230 235 243 255 268 283 299 313 324 334 340 341 340 342 343 343
209 211 213 215 216 216 217 218 219 220 220 220 222 223 224 224 222 224 228 232 227 223 224 226 227 227 229 231 233 237 244 253 265 278 291 307 320 329 335 336 335 338 340 340
207 213 213 216 219 218 219 220 220 222 224 225 227 228 229 229 228 226 230 230 225 224 227 229 230 230 229 230 232 233 243 250 261 274 289 303 313 323 330 331 332 334 337 338
204 214 218 217 221 225 225 223 226 226 227 229 232 235 235 234 233 232 236 240 238 234 233 230 230 232 230 231 230 236 238 243 252 265 279 295 309 319 324 325 328 331 335 336
200 210 220 220 223 227 229 231 232 232 231 232 234 235 237 238 238 242 240 239 236 235 234 232 232 233 231 231 229 244 242 242 248 255 266 288 304 314 319 320 323 329 334 333
208 219 232 238 236 234 234 235 237 238 239 240 239 238 237 236 236 236 235 235 235 236 232 230 231 232 233 231 231 249 248 245 247 253 260 283 299 309 313 316 322 328 331 332
243 243 244 243 238 233 233 236 238 240 245 247 247 246 244 240 237 236 234 233 232 230 229 229 229 231 230 229 238 252 248 245 248 250 257 283 299 307 310 315 322 326 329 331
Wind_Speed_850mb
1 7 21 28 29 34 32 17 8 17 20 33 31 33 47 48 61 57 64 71 71 76 82 84 93 103 105 104 98 97 99 96 95 89 84 82 80 79 77 72 72 69 69 68
5 6 11 32 32 27 21 17 6 14 14 24 31 40 56 61 55 55 60 63 70 81 79 88 99 103 103 100 98 96 98 96 91 87 84 82 77 77 76 77 72 68 68 66
10 6 8 14 24 27 15 18 6 17 12 22 22 38 44 48 50 54 54 64 76 75 82 90 94 97 100 98 95 97 97 93 89 86 85 82 79 75 74 71 66 67 62 57
4 8 20 7 5 10 21 16 15 7 9 8 9 31 46 48 47 51 59 67 68 76 84 87 91 94 91 91 92 91 90 86 82 78 79 75 71 71 69 63 62 60 57 53
4 7 6 6 2 3 5 15 13 8 8 2 15 9 38 43 46 49 56 63 72 76 80 82 85 85 87 89 87 85 84 81 76 72 71 67 68 67 65 61 60 57 50 45
2 6 4 4 6 8 4 13 7 11 14 13 9 15 6 33 41 48 53 60 66 70 73 75 78 77 79 82 79 81 75 71 66 64 65 67 66 64 59 54 54 50 47 45
3 3 6 4 7 14 3 9 17 7 11 24 11 9 17 27 37 47 54 58 62 67 74 74 71 71 78 74 76 70 65 63 63 62 62 59 58 55 53 50 48 46 46 45
3 2 2 12 12 7 16 29 27 21 21 29 27 27 29 34 40 45 51 55 59 64 68 68 63 62 69 71 66 60 57 58 57 55 54 52 49 49 46 45 45 45 42 45
8 1 1 12 13 22 35 47 35 31 30 29 30 30 31 34 38 43 48 53 57 61 63 63 61 58 63 64 55 53 53 55 53 51 49 47 45 45 45 43 40 39 41 41
3 6 8 16 30 38 38 37 39 34 34 32 35 34 36 37 39 43 46 50 52 53 56 58 55 54 56 53 48 46 49 49 46 44 44 42 41 39 35 35 38 43 45 44
6 4 6 24 37 44 43 39 39 36 34 35 36 37 36 39 40 42 43 44 44 45 49 52 49 48 47 42 38 38 42 44 43 41 38 35 31 30 31 37 40 39 38 36
9 46 22 44 64 57 53 51 48 47 46 39 35 37 39 40 40 40 41 40 38 38 40 43 42 42 42 38 32 31 35 36 36 34 32 31 30 31 33 33 38 41 39 33
10 46 25 44 67 62 57 54 50 47 44 47 43 39 40 41 42 42 41 39 35 34 35 35 34 34 34 33 28 25 28 32 31 31 31 30 31 31 31 33 39 44 44 42
22 64 27 72 78 68 59 54 50 47 44 42 42 44 41 42 44 43 41 39 37 35 34 33 31 29 29 29 24 20 22 25 25 27 30 32 35 37 37 38 43 47 47 45
41 57 41 63 66 71 65 63 62 59 56 54 50 47 48 46 44 42 42 41 39 37 35 33 30 26 25 23 20 15 16 18 21 24 27 31 34 36 37 37 41 47 48 46
56 60 40 69 76 79 76 73 70 69 65 62 58 55 47 41 40 41 43 43 40 37 36 34 32 26 21 18 16 12 9 9 14 20 25 28 32 35 38 39 43 50 51 50
72 60 59 74 83 88 88 80 74 71 70 68 61 56 54 52 51 50 48 44 42 39 36 34 32 29 25 20 16 11 5 3 9 15 21 27 32 37 40 42 43 49 53 51
81 80 84 80 88 88 85 80 76 74 71 65 64 63 63 62 56 52 51 51 51 48 45 41 38 35 30 25 21 15 10 8 8 13 19 26 31 36 41 43 44 49 52 50
75 68 77 72 72 77 78 79 78 72 70 69 72 73 65 59 56 55 55 56 56 53 48 45 42 39 35 32 27 22 17 14 13 16 20 25 31 36 40 43 44 50 54 52
76 77 58 69 64 68 74 73 73 73 73 72 72 73 72 68 65 63 63 62 53 46 46 46 43 40 38 35 33 28 23 20 19 20 22 26 31 37 42 46 47 52 55 54
64 75 72 60 65 62 63 70 72 76 75 76 77 74 70 67 69 70 70 67 58 54 54 51 48 46 43 40 38 34 29 26 24 23 23 27 32 36 42 45 46 51 55 54
58 69 75 66 58 58 58 63 70 73 75 76 75 75 75 73 74 76 72 65 57 58 59 56 53 50 46 43 41 36 32 29 27 25 25 27 32 37 42 44 46 52 56 54
61 52 66 71 62 55 55 59 64 71 73 76 77 77 76 75 76 79 77 70 66 66 61 57 53 52 49 48 44 37 35 31 28 27 26 29 33 37 42 43 46 52 55 54
52 43 48 63 64 59 59 57 58 61 67 70 71 73 74 75 75 75 74 66 62 62 62 58 57 55 53 51 46 43 38 33 32 30 27 30 33 37 41 42 45 51 54 52
38 37 34 53 67 68 59 53 51 54 57 63 69 70 72 72 71 67 67 67 63 63 63 60 58 56 54 51 49 48 44 43 37 32 27 28 33 37 40 41 45 50 52 49
22 27 30 34 46 57 59 59 58 54 55 59 61 65 69 72 71 68 66 64 66 64 62 64 63 60 54 52 51 52 48 41 38 32 27 27 33 36 37 39 44 49 50 46
11 17 24 30 35 44 54 58 58 55 52 52 52 54 59 66 69 68 67 68 65 66 63 62 62 57 52 51 55 51 45 42 37 31 26 27 33 35 35 38 44 48 47 43
Wind_Direction_850mb
197 287 50 44 28 28 48 26 33 340 5 358 356 347 354 9 11 16 27 39 47 62 73 84 89 99 102 103 105 104 103 101 98 99 98 98 97 94 95 93 92 91 89 86
140 272 253 45 31 33 43 20 19 360 39 355 358 11 11 7 9 18 27 38 59 76 77 86 93 98 101 102 100 100 98 98 99 98 97 96 96 95 95 94 92 90 87 84
40 26 195 23 18 30 59 32 317 40 339 342 12 29 9 1 15 26 34 49 71 78 83 92 95 99 99 101 102 99 99 99 98 97 96 95 93 92 90 89 90 87 84 81
348 324 42 334 102 161 71 51 36 58 7 358 89 53 30 35 35 46 60 74 79 83 88 93 97 99 100 100 98 97 96 96 94 93 93 93 92 89 89 88 85 82 81 79
40 37 139 212 350 343 360 19 14 352 4 318 206 201 47 46 56 63 72 80 87 91 95 97 96 98 98 96 96 95 94 94 95 95 95 94 92 89 88 87 86 81 77 71
108 77 61 123 166 186 194 45 26 17 8 358 176 96 29 50 71 82 87 93 96 97 98 99 99 100 99 98 97 94 94 94 95 95 93 91 89 89 88 85 82 77 69 62
104 107 260 148 151 157 176 179 162 133 75 62 59 62 100 87 90 92 95 97 101 103 100 99 101 102 99 99 95 95 96 95 93 90 89 90 91 88 82 79 77 71 60 52
127 159 222 147 133 213 138 137 151 144 125 116 114 108 101 99 100 102 104 107 106 105 104 103 101 100 98 95 97 99 100 99 98 97 94 91 88 86 80 74 67 60 49 41
221 341 178 200 239 153 147 153 162 154 145 135 125 120 116 112 113 112 112 110 109 107 106 105 105 102 101 102 104 103 100 97 94 91 89 87 82 76 70 64 60 52 43 37
224 186 200 164 153 158 157 159 159 159 154 149 140 135 129 126 123 121 119 118 116 115 113 110 106 102 99 101 101 99 95 93 88 83 78 72 68 65 61 58 50 40 34 29
247 185 187 214 189 172 169 170 168 166 163 157 152 145 141 138 135 132 129 126 127 124 119 115 111 104 99 98 98 95 91 85 79 73 70 70 69 66 58 49 41 35 29 26
207 183 181 196 183 182 182 179 177 173 169 169 165 157 153 150 147 145 142 140 138 131 126 122 119 113 108 101 93 85 87 86 83 77 71 66 61 55 48 40 32 31 28 26
166 182 182 178 181 184 185 183 181 180 178 170 169 170 165 161 158 157 154 152 150 144 139 133 129 123 117 110 102 96 89 85 80 74 67 61 55 50 46 36 25 21 20 14
194 167 156 170 181 185 185 183 183 182 185 185 179 175 176 174 170 169 166 163 163 160 155 150 148 144 135 126 119 102 88 84 77 66 55 46 39 33 28 22 18 15 10 8
193 183 190 180 181 182 183 185 187 189 189 190 191 190 184 183 182 176 176 176 175 172 170 167 166 163 153 142 130 114 92 74 64 54 44 36 30 24 19 15 11 8 4 2
192 195 184 184 184 184 187 190 194 193 195 195 195 194 193 189 191 190 190 191 191 187 182 181 179 181 176 167 155 139 110 75 50 40 31 25 20 15 11 9 6 4 1 356
180 188 186 187 189 191 196 198 198 198 197 199 199 196 195 195 198 201 201 197 195 197 195 195 194 195 197 194 188 178 169 37 19 17 14 9 8 6 4 2 360 359 356 352
207 207 200 196 193 196 199 202 202 203 204 201 198 201 204 206 208 206 204 204 204 206 204 203 205 205 208 211 212 215 227 265 316 344 352 355 356 355 356 355 353 354 352 350
211 215 209 207 207 206 205 205 206 206 205 206 204 207 212 214 212 210 211 212 213 213 212 213 213 213 215 219 224 230 239 260 288 314 330 338 342 346 348 350 349 349 350 348
214 214 213 216 215 216 214 211 211 210 210 210 211 213 215 214 213 213 216 221 223 223 217 219 221 221 224 225 228 234 242 256 275 292 311 325 333 339 344 347 346 346 347 345
211 213 213 215 215 218 219 219 216 215 214 214 217 219 221 219 217 217 219 223 221 217 219 222 225 225 227 228 230 235 243 255 268 283 299 313 324 334 340 341 340 342 343 343
209 211 213 215 216 216 217 218 219 220 220 220 222 223 224 224 222 224 228 232 227 223 224 226 227 227 229 231 233 237 244 253 265 278 291 307 320 329 335 336 335 338 340 340
207 213 213 216 219 218 219 220 220 222 224 225 227 228 229 229 228 226 230 230 225 224 227 229 230 230 229 230 232 233 243 250 261 274 289 303 313 323 330 331 332 334 337 338
204 214 218 217 221 225 225 223 226 226 227 229 232 235 235 234 233 232 236 240 238 234 233 230 230 232 230 231 230 236 238 243 252 265 279 295 309 319 324 325 328 331 335 336
200 210 220 220 223 227 229 231 232 232 231 232 234 235 237 238 238 242 240 239 236 235 234 232 232 233 231 231 229 244 242 242 248 255 266 288 304 314 319 320 323 329 334 333
208 219 232 238 236 234 234 235 237 238 239 240 239 238 237 236 236 236 235 235 235 236 232 230 231 232 233 231 231 249 248 245 247 253 260 283 299 309 313 316 322 328 331 332
243 243 244 243 238 233 233 236 238 240 245 247 247 246 244 240 237 236 234 233 232 230 229 229 229 231 230 229 238 252 248 245 248 250 257 283 299 307 310 315 322 326 329 331